Albion, NE

1:22 AM CDT on August 27, 2016 (GMT -0500)
Albion Municipal

Weather History for KBVN - December, 2013

Change the Weather History Date:

Thursday, December 26, 2013

  Actual Average (KOFK) Record (KOFK)
Temperature  
Mean Temperature 36 °F 23 °F  
Max Temperature 52 °F 32 °F 64 °F (1928)
Min Temperature 19 °F 13 °F -17 °F (1902)
Degree Days  
Heating Degree Days 30 42  
Month to date heating degree days 1048  
Since 1 July heating degree days 2493  
Cooling Degree Days 0 0  
Month to date cooling degree days 0  
Year to date cooling degree days 915  
Moisture  
Dew Point 18 °F    
Average Humidity 59    
Maximum Humidity 85    
Minimum Humidity 24    
Precipitation  
Precipitation 0.00 in 0.02 in 0.55 in (1942)
Month to date precipitation 0.65  
Year to date precipitation 27.31  
Snow  
Snow 0.00 in 0.10 in - ()
Month to date snowfall 5.1  
Since 1 July snowfall 10.0  
Snow Depth -    
Sea Level Pressure  
Sea Level Pressure 30.13 in    
Wind  
Wind Speed 3 mph (NW)    
Max Wind Speed 15 mph    
Max Gust Speed 18 mph    
Visibility 10 miles    
Events      
T = Trace of Precipitation, MM = Missing Value Source: NWS Daily Summary

Daily Weather History Graph

Daily Weather History Graph

Search for Another Location

Airport or City:

Trip Planner

Search our weather history database for the weather conditions in past years. The results will help you decide how hot, cold, wet, or windy it might be!

Date:

Astronomy

Dec. 26, 2013 Rise Set
Actual Time 7:58 AM CST 5:07 PM CST
Civil Twilight 7:26 AM CST 5:39 PM CST
Nautical Twilight 6:51 AM CST 6:14 PM CST
Astronomical Twilight 6:17 AM CST 6:48 PM CST
Moon 1:24 AM CST (12/26) 12:47 PM CST (12/26)
Length of Visible Light 10h 12m
Length of Day
9h 09m
Last Quarter, 38% of the Moon is Illuminated
Dec 26
Last Quarter
Jan 1
New
Jan 7
First Quarter
Jan 15
Full
Jan 23
Last Quarter

Hourly Weather History & Observations

Time (CST) Temp. Windchill Dew Point Humidity Pressure Visibility Wind Dir Wind Speed Gust Speed Precip Events Conditions
12:15 AM 23.0 °F - 14.9 °F 71% 30.17 in 10.0 mi Calm Calm - N/A   Clear
12:35 AM 24.1 °F - 15.6 °F 70% 30.16 in 10.0 mi Calm Calm - N/A   Clear
12:55 AM 23.9 °F - 15.6 °F 71% 30.16 in 10.0 mi Calm Calm - N/A   Clear
1:15 AM 24.4 °F - 16.0 °F 70% 30.15 in 10.0 mi Calm Calm - N/A   Clear
1:35 AM 24.8 °F - 16.0 °F 69% 30.13 in 10.0 mi Calm Calm - N/A   Clear
1:55 AM 24.8 °F - 16.3 °F 70% 30.12 in 10.0 mi Calm Calm - N/A   Clear
2:15 AM 23.9 °F - 16.2 °F 72% 30.12 in 10.0 mi Calm Calm - N/A   Clear
2:35 AM 24.1 °F - 16.2 °F 72% 30.12 in 10.0 mi Calm Calm - N/A   Clear
2:55 AM 25.2 °F - 16.5 °F 70% 30.12 in 10.0 mi Calm Calm - N/A   Clear
3:15 AM 24.8 °F - 16.7 °F 71% 30.11 in 10.0 mi Calm Calm - N/A   Clear
3:35 AM 25.0 °F - 16.9 °F 71% 30.10 in 10.0 mi Calm Calm - N/A   Clear
3:55 AM 25.0 °F - 17.1 °F 72% 30.08 in 10.0 mi Calm Calm - N/A   Clear
4:15 AM 25.7 °F - 17.2 °F 70% 30.07 in 10.0 mi Calm Calm - N/A   Clear
4:35 AM 26.6 °F - 18.1 °F 70% 30.07 in 10.0 mi Calm Calm - N/A   Clear
4:55 AM 26.8 °F - 18.0 °F 69% 30.07 in 10.0 mi Calm Calm - N/A   Clear
5:15 AM 25.7 °F 21.5 °F 17.6 °F 71% 30.06 in 10.0 mi WSW 3.5 mph - N/A   Clear
5:35 AM 25.5 °F - 17.2 °F 71% 30.05 in 10.0 mi Calm Calm - N/A   Clear
5:55 AM 25.7 °F 21.5 °F 17.4 °F 71% 30.06 in 10.0 mi West 3.5 mph - N/A   Clear
6:15 AM 25.3 °F 21.1 °F 17.1 °F 71% 30.06 in 10.0 mi North 3.5 mph - N/A   Clear
6:35 AM 24.3 °F - 16.7 °F 73% 30.07 in 10.0 mi Calm Calm - N/A   Clear
6:55 AM 24.1 °F - 16.7 °F 73% 30.06 in 10.0 mi Calm Calm - N/A   Clear
7:15 AM 24.6 °F - 16.7 °F 72% 30.06 in 10.0 mi Calm Calm - N/A   Clear
7:35 AM 25.7 °F - 17.1 °F 70% 30.05 in 10.0 mi Calm Calm - N/A   Clear
7:55 AM 20.5 °F - 15.1 °F 80% 30.06 in 10.0 mi Calm Calm - N/A   Clear
8:15 AM 23.0 °F 18.4 °F 16.7 °F 77% 30.08 in 10.0 mi NW 3.5 mph - N/A   Clear
8:35 AM 24.8 °F - 17.4 °F 74% 30.08 in 10.0 mi Calm Calm - N/A   Clear
8:55 AM 25.0 °F 20.7 °F 18.1 °F 75% 30.09 in 10.0 mi NNW 3.5 mph - N/A   Clear
9:15 AM 24.8 °F - 18.5 °F 77% 30.09 in 10.0 mi Calm Calm - N/A   Clear
9:35 AM 25.0 °F - 19.0 °F 78% 30.11 in 10.0 mi Calm Calm - N/A   Clear
9:55 AM 28.2 °F - 19.9 °F 71% 30.11 in 10.0 mi Calm Calm - N/A   Clear
10:15 AM 32.0 °F 27.5 °F 21.0 °F 64% 30.11 in 10.0 mi NNW 4.6 mph - N/A   Clear
10:35 AM 37.2 °F 30.6 °F 22.1 °F 54% 30.12 in 10.0 mi NW 9.2 mph - N/A   Clear
10:55 AM 40.5 °F 34.6 °F 19.9 °F 44% 30.13 in 10.0 mi NNW 9.2 mph - N/A   Clear
11:15 AM 42.8 °F 35.8 °F 18.7 °F 38% 30.12 in 10.0 mi NW 13.8 mph 18.4 mph N/A   Clear
11:35 AM 44.1 °F 37.4 °F 18.9 °F 37% 30.12 in 10.0 mi NNW 13.8 mph - N/A   Clear
11:55 AM 46.0 °F 40.2 °F 18.5 °F 33% 30.12 in 10.0 mi NW 12.7 mph 18.4 mph N/A   Clear
12:15 PM 47.7 °F - 17.6 °F 30% 30.11 in 10.0 mi NW 12.7 mph - N/A   Clear
12:35 PM 48.6 °F - 17.2 °F 29% 30.11 in 10.0 mi NNW 12.7 mph - N/A   Clear
12:55 PM 49.5 °F - 16.7 °F 27% 30.10 in 10.0 mi NW 12.7 mph - N/A   Clear
1:15 PM 50.2 °F - 16.5 °F 26% 30.10 in 10.0 mi NW 12.7 mph - N/A   Clear
1:35 PM 50.7 °F - 16.3 °F 26% 30.09 in 10.0 mi NW 12.7 mph - N/A   Clear
1:55 PM 51.3 °F - 16.5 °F 25% 30.09 in 10.0 mi NW 12.7 mph - N/A   Clear
2:15 PM 52.3 °F - 16.7 °F 24% 30.09 in 10.0 mi NW 12.7 mph - N/A   Clear
2:35 PM 52.3 °F - 16.7 °F 24% 30.09 in 10.0 mi WNW 11.5 mph 17.3 mph N/A   Clear
2:55 PM 52.0 °F - 16.9 °F 25% 30.09 in 10.0 mi NW 9.2 mph 17.3 mph N/A   Clear
3:15 PM 52.2 °F - 17.6 °F 26% 30.10 in 10.0 mi WNW 15.0 mph - N/A   Clear
3:35 PM 51.8 °F - 18.5 °F 27% 30.11 in 10.0 mi NW 12.7 mph 18.4 mph N/A   Clear
3:55 PM 50.9 °F - 19.4 °F 29% 30.13 in 10.0 mi NW 11.5 mph - N/A   Clear
4:15 PM 49.6 °F - 19.8 °F 31% 30.13 in 10.0 mi NW 10.4 mph - N/A   Clear
4:35 PM 47.8 °F - 19.8 °F 33% 30.15 in 10.0 mi NW 8.1 mph - N/A   Clear
4:55 PM 43.2 °F 38.4 °F 19.4 °F 39% 30.16 in 10.0 mi NW 8.1 mph - N/A   Clear
5:15 PM 40.8 °F 36.2 °F 19.4 °F 42% 30.17 in 10.0 mi NW 6.9 mph - N/A   Clear
5:35 PM 38.5 °F 35.0 °F 19.2 °F 46% 30.17 in 10.0 mi WNW 4.6 mph - N/A   Scattered Clouds
5:55 PM 34.9 °F - 18.5 °F 51% 30.18 in 10.0 mi Calm Calm - N/A   Scattered Clouds
6:15 PM 36.5 °F - 19.2 °F 50% 30.18 in 10.0 mi Calm Calm - N/A   Scattered Clouds
6:35 PM 36.3 °F 33.7 °F 19.8 °F 51% 30.18 in 10.0 mi NW 3.5 mph - N/A   Scattered Clouds
6:55 PM 32.5 °F 28.1 °F 19.2 °F 58% 30.18 in 10.0 mi NW 4.6 mph - N/A   Scattered Clouds
7:15 PM 32.9 °F 26.7 °F 19.8 °F 59% 30.18 in 10.0 mi NW 6.9 mph - N/A   Scattered Clouds
7:35 PM 33.8 °F 27.7 °F 20.8 °F 59% 30.18 in 10.0 mi NW 6.9 mph - N/A   Scattered Clouds
7:55 PM 33.6 °F 28.4 °F 20.8 °F 59% 30.19 in 10.0 mi NNW 5.8 mph - N/A   Scattered Clouds
8:15 PM 33.1 °F 28.7 °F 22.1 °F 64% 30.19 in 10.0 mi NNW 4.6 mph - N/A   Scattered Clouds
8:35 PM 33.6 °F 28.4 °F 22.6 °F 64% 30.19 in 10.0 mi NNW 5.8 mph - N/A   Scattered Clouds
8:55 PM 33.6 °F 29.4 °F 22.5 °F 64% 30.19 in 10.0 mi NNW 4.6 mph - N/A   Scattered Clouds
9:15 PM 23.2 °F - 16.7 °F 76% 30.20 in 10.0 mi Calm Calm - N/A   Scattered Clouds
9:35 PM 24.4 °F - 18.1 °F 77% 30.20 in 10.0 mi Calm Calm - N/A   Clear
9:55 PM 26.1 °F - 19.2 °F 75% 30.21 in 10.0 mi Calm Calm - N/A   Clear
10:15 PM 26.1 °F - 18.9 °F 74% 30.21 in 10.0 mi Calm Calm - N/A   Clear
10:35 PM 23.0 °F 18.4 °F 18.1 °F 82% 30.22 in 10.0 mi NNW 3.5 mph - N/A   Clear
10:55 PM 20.5 °F - 16.0 °F 83% 30.23 in 10.0 mi Calm Calm - N/A   Clear
11:15 PM 19.9 °F - 16.2 °F 85% 30.23 in 10.0 mi Calm Calm - N/A   Clear
11:35 PM 20.7 °F - 16.3 °F 83% 30.24 in 10.0 mi Calm Calm - N/A   Clear
11:55 PM 20.3 °F - 16.3 °F 85% 30.24 in 10.0 mi Calm Calm - N/A   Clear